Location: Chuathbaluk
(61.5726°N, 159.2454°W)
Time: 03:49:26
(UTC+00:00)

Transit 2A - Pass Details

Date: 28 November 2020
Orbit: 599 x 960 km, 66.7° (Epoch: 26 January)

Event Time Altitude Azimuth Distance (km) Brightness Sun altitude
Rises 12:56:52 0° 310° (NW) 3,391 - -42.1°
Reaches altitude 10° 12:59:43 10° 299° (WNW) 2,389 - -41.9°
Maximum altitude 13:04:17 28° 242° (WSW) 1,386 - -41.4°
Drops below altitude 10° 13:08:29 10° 184° (S) 2,174 - -41.0°
Sets 13:10:57 0° 173° (S) 3,031 - -40.8°
